User: anonymous   Login
Location: Arrodets-la-Barthe
(43.0306°N, 0.2829°E)
Time: 23:17:39
(UTC+00:00)
Language:

H-2A R/B - Orbit

View from above orbital plane
View from above orbital plane
View from above satellite
View from above satellite

Ground track
Ground track

The orbit data is extracted from the following two-line orbital elements,

1 28932U 06002B   22028.69672594  .00000518  00000-0  52754-4 0  9995
2 28932  98.3105  63.4751 0087477 189.3092 284.5972 14.92918348869293
Epoch (UTC): 28 January 2022 16:43:17
Eccentricity: 0.0087477
inclination: 98.3105°
perigee height: 528 km
apogee height: 650 km
right ascension of ascending node: 63.4751°
argument of perigee: 189.3092°
revolutions per day: 14.92918348
mean anomaly at epoch: 284.5972°
orbit number at epoch: 86929

The dashed part of the orbit path shows where the satellite is in the earth's shadow,  

DLR